Location: Red Deer
(52.2681°N, 113.8112°W)
Time: 19:26:58
(UTC-07:00)

N. Korean satellite - Pass Details

Date: 27 November 2022
Orbit: 407 x 442 km, 97.3° (Epoch: 05 February)

Event Time Altitude Azimuth Distance (km) Brightness Sun altitude
Rises 05:34:47 0° 19° (NNE) 2,534 10.4 -23.9°
Reaches altitude 10° 05:36:57 10° 27° (NNE) 1,652 9.5 -23.5°
Maximum altitude 05:40:19 39° 98° (E) 729 7.9 -23.0°
Drops below altitude 10° 05:43:38 10° 168° (SSE) 1,632 9.4 -22.5°
Sets 05:45:45 0° 177° (S) 2,498 10.3 -22.2°
